Weather History for Cartersville, GA

Change the Weather History Date:

Thursday, June 27, 2013

  Actual Average Record
Temperature  
Mean Temperature 79 °F 77 °F  
Max Temperature 88 °F 89 °F 93 °F (2008)
Min Temperature 70 °F 65 °F 59 °F (2012)
Cooling Degree Days 14 12  
Month to date cooling degree days 296 258  
Year to date cooling degree days 421 407  
Since 1 June cooling degree days 296 258  
Growing Degree Days 30 (Base 50)    
Moisture  
Dew Point 72 °F    
Average Humidity 83    
Maximum Humidity 100    
Minimum Humidity 65    
Precipitation  
Precipitation 0.31 in 0.15 in 1.41 in (1962)
Month to date precipitation 6.23 3.35  
Year to date precipitation 18.04 25.51  
Sea Level Pressure  
Sea Level Pressure 29.89 in    
Wind  
Wind Speed 3 mph (NE)    
Max Wind Speed 8 mph    
Max Gust Speed 25 mph    
Visibility 9 miles    
Events Rain , Thunderstorm    
T = Trace of Precipitation, MM = Missing Value Source: NWS Daily Summary

Daily Weather History Graph

Daily Weather History Graph

Search for Another Location

Airport:

Trip Planner

Search our weather history database for the weather conditions in past years. The results will help you decide how hot, cold, wet, or windy it might be!

Date:

Astronomy

Jun. 27, 2013 Rise Set
Actual Time 6:30 AM EDT 8:54 PM EDT
Civil Twilight 6:00 AM EDT 9:24 PM EDT
Nautical Twilight 5:24 AM EDT 10:00 PM EDT
Astronomical Twilight 4:45 AM EDT 10:39 PM EDT
Moon No Moon Rise 11:16 AM EDT (6/27)
Length of Visible Light 15h 23m
Length of Day
14h 24m
Waning Gibbous, 76% of the Moon is Illuminated
Jun 27
Waning Gibbous
Jun 30
Last Quarter
Jul 8
New
Jul 15
First Quarter
Jul 22
Full

Hourly Weather History & Observations

Time (EDT) Temp. Heat Index Dew Point Humidity Pressure Visibility Wind Dir Wind Speed Gust Speed Precip Events Conditions
12:53 AM 75.9 °F - 73.0 °F 91% 29.97 in 10.0 mi Calm Calm - N/A   Clear
1:53 AM 77.0 °F - 72.0 °F 84% 29.94 in 10.0 mi SSW 3.5 mph - N/A   Scattered Clouds
2:53 AM 75.9 °F - 72.0 °F 87% 29.94 in 10.0 mi Calm Calm - N/A   Clear
3:53 AM 75.0 °F - 72.0 °F 90% 29.93 in 10.0 mi Calm Calm - N/A   Scattered Clouds
4:53 AM 75.9 °F - 71.1 °F 85% 29.92 in 10.0 mi Variable 3.5 mph - N/A   Mostly Cloudy
5:53 AM 75.9 °F - 71.1 °F 85% 29.90 in 10.0 mi Variable 5.8 mph - N/A   Clear
6:53 AM 75.9 °F - 71.1 °F 85% 29.91 in 10.0 mi Calm Calm - N/A   Mostly Cloudy
7:53 AM 77.0 °F - 71.1 °F 82% 29.91 in 10.0 mi Variable 3.5 mph - N/A   Mostly Cloudy
8:53 AM 78.1 °F - 71.1 °F 79% 29.93 in 10.0 mi Variable 3.5 mph - N/A   Clear
9:53 AM 79.0 °F - 68.0 °F 69% 29.94 in 10.0 mi Variable 4.6 mph - N/A   Clear
10:53 AM 81.0 °F 84.4 °F 70.0 °F 69% 29.93 in 10.0 mi Variable 3.5 mph - N/A   Mostly Cloudy
11:00 AM 80.6 °F 83.9 °F 69.8 °F 70% 29.97 in 10.0 mi Variable 3.5 mph - N/A   Overcast
11:25 AM 80.6 °F 83.9 °F 69.8 °F 70% 29.96 in 10.0 mi Variable 4.6 mph - N/A   Scattered Clouds
11:53 AM 80.1 °F 83.2 °F 70.0 °F 71% 29.92 in 10.0 mi Variable 4.6 mph - N/A   Mostly Cloudy
12:53 PM 82.0 °F 86.7 °F 72.0 °F 71% 29.89 in 10.0 mi Variable 4.6 mph - N/A   Partly Cloudy
1:23 PM 82.4 °F 88.2 °F 73.4 °F 74% 29.93 in 10.0 mi Variable 3.5 mph - N/A   Mostly Cloudy
1:53 PM 82.0 °F 87.9 °F 73.9 °F 76% 29.88 in 10.0 mi Calm Calm - N/A   Overcast
2:53 PM 81.0 °F 86.2 °F 73.9 °F 79% 29.88 in 10.0 mi Calm Calm - N/A   Overcast
3:17 PM 84.2 °F 92.3 °F 75.2 °F 74% 29.91 in 10.0 mi Variable 5.8 mph - N/A   Mostly Cloudy
3:53 PM 84.9 °F 92.1 °F 73.9 °F 69% 29.86 in 10.0 mi NNW 8.1 mph - N/A   Scattered Clouds
4:53 PM 86.0 °F 93.8 °F 73.9 °F 67% 29.82 in 10.0 mi Variable 3.5 mph - N/A   Scattered Clouds
5:53 PM 86.0 °F 95.1 °F 75.0 °F 70% 29.81 in 10.0 mi Variable 3.5 mph - N/A   Scattered Clouds
6:53 PM 86.0 °F 93.8 °F 73.9 °F 67% 29.80 in 10.0 mi Calm Calm - N/A   Partly Cloudy
7:53 PM 81.0 °F 87.9 °F 77.0 °F 88% 29.80 in 10.0 mi Calm Calm - N/A Thunderstorm Mostly Cloudy
8:15 PM 78.8 °F - 73.4 °F 83% 29.87 in 1.2 mi North 11.5 mph 25.3 mph 0.18 in Rain , Thunderstorm Heavy Thunderstorms and Rain
8:33 PM 75.2 °F - 69.8 °F 83% 29.87 in 3.0 mi ENE 5.8 mph - 0.31 in Rain , Thunderstorm Light Thunderstorms and Rain
8:53 PM 73.9 °F - 73.0 °F 97% 29.82 in 9.0 mi ESE 3.5 mph - 0.31 in Thunderstorm Scattered Clouds
9:19 PM 73.4 °F - 71.6 °F 94% 29.87 in 10.0 mi NNE 3.5 mph - N/A   Clear
9:53 PM 73.0 °F - 72.0 °F 96% 29.83 in 10.0 mi Calm Calm - N/A   Clear
10:53 PM 73.0 °F - 72.0 °F 96% 29.85 in 7.0 mi NE 3.5 mph - N/A   Partly Cloudy
11:53 PM 72.0 °F - 72.0 °F 100% 29.85 in 8.0 mi Calm Calm - N/A   Clear